Location: Bun
(42.9667°N, 0.1500°W)
Time: 03:18:27
(UTC+00:00)

Okean O Rocket - Pass Details

Date: 03 February 2023
Orbit: 620 x 643 km, 98.1° (Epoch: 26 March)

Event Time Altitude Azimuth Distance (km) Brightness Sun altitude
Rises 19:13:17 0° 167° (SSE) 2,903 4.9 -21.8°
Reaches altitude 10° 19:15:27 10° 168° (SSE) 2,004 4.1 -22.2°
Maximum altitude 19:19:50 84° 257° (WSW) 643 1.6 -23.0°
Drops below altitude 10° 19:24:16 10° 346° (NNW) 2,035 4.3 -23.8°
Sets 19:26:30 0° 347° (NNW) 2,952 5.2 -24.2°
